Find Starlink 32628

NORAD ID: 62122 Int'l Des: 2024-222 Owner: SPXS Country: US Constellation: starlink operational
LEOCIRCULAR

Live Position

Loading 3D Globe...

About Starlink 32628

Description loading...

Upcoming Passes

Passes for default location (London). Set your location on the main map for personalized predictions.

Altitude History

Loading altitude history...

Two-Line Element Set

1 62122U 24222J 26126.51858164 .00053706 00000-0 19422-2 0 9991
2 62122 42.9992 169.5539 0001217 244.0829 115.9897 15.27660827 81764
Epoch: May 6, 2026 • Age: 7 hours

Current Status

Altitude 493.4 km
Velocity 7.62 km/s
Sub-Earth Point -38.65°S, 115.23°W
Launch Date Nov 27, 2024
Age 1.4 years
Type internet

Technical Details

Classification Payload
Mass 730.00 kg
Dry Mass 700.00 kg
Total Mass 730.00 kg
Length 0.30 m
Diameter 4.10 m
Span 29.00 m
Shape Box + pan
Manufacturer SPXS
Bus Type Starlink V2M
Phase Status In Orbit
Owner/State SPXS/US

Most Searched